Location: Ravensburg
(48.5621°N, 13.4088°E)
Time: 19:15:37
(UTC+01:00)

Tiangong 2 - Visible Passes

Search period start: 23 November 2017 00:00
Search period end: 03 December 2017 00:00
Orbit: 386 x 392 km, 42.8° (Epoch: 22 November)

Date Brightness Start Highest point End Pass type
(mag) Time Alt. Az. Time Alt. Az. Time Alt. Az.
27 Nov 4.0 06:50:31 10° SSW 06:52:43 17° SSE 06:54:55 10° ESE visible
28 Nov 4.1 05:53:14 10° S 05:54:43 13° SSE 05:56:12 10° SE visible
29 Nov 3.4 06:30:16 10° SW 06:32:51 22° SSE 06:35:25 10° ESE visible
30 Nov 3.5 05:33:25 14° SSW 05:34:47 18° SSE 05:37:02 10° ESE visible
01 Dec 4.5 04:38:10 11° SE 04:38:10 11° SE 04:38:21 10° SE visible
01 Dec 2.9 06:10:28 12° SW 06:12:58 27° S 06:15:44 10° ESE visible
02 Dec 3.1 05:15:06 23° SSE 05:15:06 23° SSE 05:17:27 10° ESE visible
02 Dec 2.8 06:48:25 10° WSW 06:51:12 28° S 06:54:00 10° ESE visible
